Location: Taupo
(38.6830°S, 176.0830°E)
Time: 17:07:36
(UTC+13:00)

Cosmos 1741 Rocket - Pass Details

Date: 24 January 2019
Orbit: 761 x 783 km, 74.0° (Epoch: 18 October)

Event Time Altitude Azimuth Distance (km) Brightness Sun altitude
Rises 21:21:56 0° 335° (NNW) 3,252 7.2 -8.4°
Reaches altitude 10° 21:24:19 10° 332° (NNW) 2,335 6.5 -8.8°
Maximum altitude 21:29:36 65° 250° (WSW) 867 4.6 -9.7°
Drops below altitude 10° 21:34:58 10° 167° (SSE) 2,371 6.8 -10.5°
Sets 21:37:24 0° 164° (SSE) 3,306 7.6 -10.9°
